www.pogodaiklimat.ru

Погода и климат >> Архив погоды >> Россия >> Хабаровский край >> Горин


ПОГОДА в Горине

  • Прогноз погоды в Горине
  • Монитор погоды в Горине

АРХИВ ПОГОДЫ в Горине

Время (UTC), дата Ветер
(напр.,м/с)
 
Видим.   Явления Облачность Т
(С)
Тd
(С)
f
(%)
Тe
(С)
Тes
(С)
Комфортность P
(гПа)
Po
(гПа)
Тmin
(С)
Tmax
(С)
R
(мм)
R24
(мм)
S
(см)
03 15.03 СВ 1 50 км 8/1 1000 м
[Cu med, cong Ci ing]
-1.5 -9.6 54 -3 +4 1011.6 1000.0
06 15.03 Ю 3 50 км 10/3 600 м
[Cb cap Ac As]
+0.7 -5.2 65 -3 -3 1010.2 998.7
09 15.03 ЮВ 1 50 км 9/0
[Ci sp]
-2.7 -5.5 81 -5 -5 1010.7 999.0 +1.1
12 15.03 Ю 1 50 км 8/0
[Ci sp]
-6.4 -6.8 97 -9 -9 1011.2 999.4
15 15.03 штиль 0 50 км 3/0
[Ci sp]
-10.7 -11.6 93 -11 -11 1011.7 999.7
18 15.03 штиль 0 50 км ясно -11.7 -12.8 92 -12 -12 1012.4 1000.3
21 15.03 штиль 0 50 км 3/0
[As op]
-13.0 -14.2 91 -13 -13 1013.2 1001.1 -13.0 54
00 16.03 штиль 0 50 км ясно -6.4 -8.2 87 -7 -1 1013.4 1001.5 -13.5
03 16.03 В 1 50 км 8/1 600 м
[Cu hum Ci fib]
+1.2 -10.6 41 0 +8 1011.9 1000.4
06 16.03 В 2 50 км 8/3 600 м
[Cu Sc Ci sp]
+1.9 -9.8 42 -1 +2 1010.4 999.0
09 16.03 Ю 1 50 км 3/0
[Ci fib]
-1.6 -9.9 53 -3 -3 1010.6 999.0 +2.4
12 16.03 ЮЗ 1 50 км 8/0
[Ci]
-5.8 -10.0 72 -8 -8 1011.0 999.2
15 16.03 штиль 0 50 км ясно -9.6 -13.1 76 -10 -10 1010.7 998.7
18 16.03 штиль 0 50 км 3/0
[Ac lent]
-12.0 -13.2 91 -12 -12 1010.2 998.1
21 16.03 штиль 0 50 км ясно -15.3 -16.5 90 -15 -15 1010.0 997.8 -15.4 54
00 17.03 СВ 1 50 км ясно -7.3 -11.8 70 -9 -4 1009.3 997.4
03 17.03 В 1 50 км 8/8 600 м
[Cu hum Ci fib]
+1.2 -10.7 41 0 +8 1006.5 995.1
06 17.03 СЗ 2 50 км 10/10 600 м
[Cu hum]
+4.9 -12.3 28 +3 +3 1004.9 993.7
09 17.03 Ю 2 50 км 9/0
[Cc]
+1.6 -9.9 42 -1 -1 1004.9 993.5 +5.1
12 17.03 З 1 50 км 10/0
[Cs]
-1.8 -9.9 54 -3 -3 1004.6 993.0
15 17.03 С 1 50 км 10/0
[Ci sp]
-5.0 -9.1 73 -7 -7 1003.7 992.0
18 17.03 штиль 0 50 км 8/0
[Ci sp]
-6.7 -10.6 74 -7 -7 1003.0 991.2
21 17.03 штиль 0 50 км 8/0
[Cc]
-9.2 -11.3 85 -10 -10 1002.9 991.1 -9.2 52
00 18.03 СЗ 3 50 км 10/0
[Cs]
-7.1 -11.2 72 -13 -10 1003.3 991.5
03 18.03 СЗ 2 50 км 10/0
[Ac As]
-4.6 -10.1 65 -8 -6 1001.5 989.9
06 18.03 СЗ 2 4000 м слаб. снег 10/0
[As op]
-5.6 -8.1 83 -10 -9 1000.2 988.6
09 18.03 СЗ 3 50 км в посл. час снег 10/10 600 м
[Frnb Ns]
-7.6 -10.3 81 -13 -13 1001.3 989.5 -4.5 2
12 18.03 СЗ 4
{12}
20 км в посл. час ливневой снег 10/6 1000 м
[Cu hum Ci fib]
-10.4 -12.9 82 -17 -17 1005.3 993.3
15 18.03 С 4-11
{12}
20 км в посл. час ливневой снег 10/0 600 м
[As op]
-11.0 -13.5 82 -18 -18 1007.5 995.5
18 18.03 С 4-10
{11}
50 км {ливн. осадки} 9/9 600 м
[Cu hum]
-11.5 -15.0 75 -19 -19 1012.4 1000.3
21 18.03 СЗ 4
{12}
50 км 3/0
[Ac lent]
-12.7 -17.2 69 -20 -20 1015.0 1002.8 -12.7 2 57
00 19.03 СЗ 3 50 км ясно -10.8 -17.4 58 -17 -13 1017.9 1005.8 -12.8
03 19.03 С 2 50 км 1/1 1000 м
[Cu hum]
-7.6 -18.1 43 -12 -4 1019.2 1007.2
06 19.03 С 1 50 км 3/1 1000 м
[Cu hum Ci fib]
-5.9 -21.7 27 -7 -3 1018.2 1006.3
09 19.03 штиль 0 50 км 10/0
[Ac und]
-7.9 -20.1 37 -8 -8 1017.4 1005.4 -5.8
12 19.03 штиль 0 50 км 10/0
[As trans]
-10.0 -17.3 55 -10 -10 1017.7 1005.6
15 19.03 СЗ 1 50 км 10/0
[Ac As]
-9.5 -18.6 47 -12 -12 1017.5 1005.4
18 19.03 СЗ 1 50 км 10/0
[Ac As]
-11.0 -18.8 53 -13 -13 1015.3 1003.2
21 19.03 СЗ 2 50 км 10/0
[Ac und]
-11.7 -17.0 65 -16 -16 1014.6 1002.5 -11.8 56
00 20.03 СЗ 3 50 км 10/0
[Ac As]
-11.5 -17.8 60 -17 -16 1016.1 1004.0 -12.2
03 20.03 С 3 50 км 1/0
[Ci sp]
-7.6 -17.5 45 -13 -5 1016.6 1004.6
06 20.03 С 3 50 км ясно -5.8 -19.7 32 -11 -7 1017.5 1005.6
09 20.03 СЗ 1 50 км ясно -7.7 -21.6 32 -9 -9 1019.5 1007.5 -5.6
12 20.03 штиль 0 50 км ясно -15.0 -21.3 59 -15 -15 1020.8 1008.5
15 20.03 штиль 0 50 км ясно -19.0 -22.7 72 -19 -19 1021.7 1009.2
18 20.03 штиль 0 50 км ясно -21.9 -24.7 78 -22 -22 1021.5 1008.8
21 20.03 штиль 0 50 км 1/0
[Ac lent]
-23.6 -26.2 79 -24 -24 1020.8 1008.0 -23.6 56
00 21.03 СЗ 2 50 км 3/0
[Ci]
-13.2 -20.7 53 -18 -13 1019.9 1007.6 -24.0
03 21.03 СЗ 2 50 км 8/0
[Ci]
-7.8 -19.2 39 -12 -4 1017.1 1005.2
06 21.03 СЗ 2 50 км 10/0
[Cs]
-6.3 -18.3 38 -10 -6 1014.9 1003.0
09 21.03 СЗ 2 50 км 10/0
[As trans]
-7.4 -18.9 39 -11 -11 1013.7 1001.8 -6.1
12 21.03 СЗ 1 50 км 10/0
[Cs]
-9.7 -18.7 48 -12 -12 1014.4 1002.4
15 21.03 З 2 50 км 10/0
[Cs]
-12.3 -19.3 56 -17 -17 1014.3 1002.2
18 21.03 СЗ 2 50 км 10/0
[Cs]
-13.4 -20.6 55 -18 -18 1014.1 1001.9
21 21.03 СЗ 2 50 км 3/0
[Ci sp]
-14.8 -20.9 60 -20 -20 1014.4 1002.1 -14.8 54
00 22.03 С 3 50 км 1/0
[Ci fib]
-11.2 -20.2 47 -17 -13 1015.1 1003.0 -14.9

 

Местоположение метеостанции Горин (Хабаровский край, Россия): широта 51.20 долгота 136.80 высота над уровнем моря 92 м.

В архиве по умолчанию представлена погода в Горине за последнюю неделю. Архивные данные за месяц целиком и за предыдущие месяцы, начиная с января 2011 года, Вы можете получить, выбрав интересующий диапазон дат из раскрывающегося списка и нажав кнопку "Ввод!".


*Определитесь, кто Вы:
робот инопланетянин человек

Внимание! Время в таблицах - всемирное. Для получения местного времени необходимо прибавить поправку, которая равна 10 ч.

Смотрите также архив погоды в соседних городах и на ближайших метеорологических станциях:

Погода в Комсомольске-на-Амуре (Хабаровский край, Россия) (76 км)
Погода в Амурске (Хабаровский край, Россия) (95 км)
Погода в Нижнетамбовском (Хабаровский край, Россия) (96 км)
Погода в Хуларине (Хабаровский край, Россия) (128 км)
Погода в Им. Полины Осипенко (Хабаровский край, Россия) (137 км)
Погода в Веселой Горке (Хабаровский край, Россия) (140 км)
Погода в Сегжеме (Хабаровский край, Россия) (147 км)
Погода в Циммермановка (Хабаровский край, Россия) (168 км)
Погода в Троицком (Хабаровский край, Россия) (195 км)
Погода в Куре (Хабаровский край, Россия) (210 км)

Пояснения к столбцам:

Ветер - указаны скорость ветра в м/с - средняя за 10 мин, порывы в срок и между сроками (в фигурных скобках) и направление, откуда дует ветер: С - северный, СВ - северо-восточный, В - восточный, ЮВ - юго-восточный, Ю - южный, ЮЗ - юго-западный, З - западный, СЗ - северо-западный.
Видимость - горизонтальная дальность видимости в метрах или километрах. При видимости от 1 до 10 км при отсутствии осадков обычно наблюдается дымка, при ухудшении видимости до 1 км и менее - туман. В сухую погоду видимость может ухудшаться дымом, пылью или мглою.
Явления - указаны атмосферные явления, наблюдавшиеся в срок или в последний час перед сроком; фигурными скобками обозначены явления, наблюдавшиеся между сроками (за 1-3 часа до срока); квадратными скобками обозначены град или гололедные отложения с указанием их диаметра в мм.
Облачность - указаны через наклонную черту общая и нижняя облачность в баллах и высота нижней границы облаков в метрах; квадратными скобками обозначены формы облаков: Ci - перистые, Cs - перисто-слоистые, Cc - перисто-кучевые, Ac - высококучевые, As - высокослоистые, Sc - слоисто-кучевые, Ns - слоисто-дождевые, Cu - кучевые, Cb - кучево-дождевые. Подробнее классификацию облаков см. в Атласе облаков (PDF).
T - Температура воздуха - температура, измеренная на высоте 2 м над землей.
Td - Температура точки росы - температура, при понижении до которой содержащийся в воздухе водяной пар достигнет насыщения.
f - Относительная влажность воздуха - влажноcть воздуха, измеренная на высоте 2 м над землей.
Te - Эффективная температура - температура, которую ощущает одетый по сезону человек в тени. Характеристика душности погоды. При расчете учитывается влияние влажности воздуха и скорости ветра на теплоощущения человека.
Tes - Эффективная температура на солнце - температура, которую ощущает человек, с поправкой на солнечный нагрев. Характеристика знойности погоды. Зависит от высоты солнца над горизонтом, облачности и скорости ветра. Ночью, в пасмурную погоду, а также при ветре 12 м/с и более поправка равна нулю.
P - Атмосферное давление - приведенное к уровню моря атмосферное давление.
Po - Атмосферное давление - измеренное на уровне метеостанции атмосферное давление.
Tmin - Минимальная температура - минимум температуры воздуха на высоте 2 м над землей.
Tmax - Максимальная температура - максимум температуры воздуха на высоте 2 м над землей.
R - Количество осадков - Количество выпавших осадков за период времени, мм. При наведении курсора мыши на число - период времени, за который выпало указанное количество осадков.
R24 - Количество осадков - Количество выпавших осадков за 24 часа, мм.
S - Снежный покров - Высота снежного покрова, см. При наведении курсора мыши на число - состояние снежного покрова и степень покрытия местности в баллах.